Change the Weather History Date:

Sunday, January 27, 2013

  Actual Average Record
Temperature  
Mean Temperature 21 °F -  
Max Temperature 33 °F 36 °F 59 °F (1978)
Min Temperature 9 °F 19 °F -4 °F (1982)
Degree Days  
Heating Degree Days 44    
Moisture  
Dew Point 2 °F    
Average Humidity 47    
Maximum Humidity 84    
Minimum Humidity 22    
Precipitation  
Precipitation 0.00 in - - ()
Sea Level Pressure  
Sea Level Pressure 30.44 in    
Wind  
Wind Speed 4 mph (NW)    
Max Wind Speed 13 mph    
Max Gust Speed 17 mph    
Visibility 10 miles    
Events      
Averages and records for this station are not official NWS values.
T = Trace of Precipitation, MM = Missing Value Source: NWS Daily Summary

Daily Weather History Graph

Daily Weather History Graph

Search for Another Location

Airport or City:

Trip Planner

Search our weather history database for the weather conditions in past years. The results will help you decide how hot, cold, wet, or windy it might be!

Date:

Astronomy

Jan. 27, 2013 Rise Set
Actual Time 7:07 AM EST 5:00 PM EST
Civil Twilight 6:37 AM EST 5:29 PM EST
Nautical Twilight 6:03 AM EST 6:03 PM EST
Astronomical Twilight 5:31 AM EST 6:36 PM EST
Moon 5:52 PM EST (1/27) 6:57 AM EST (1/27)
Length of Visible Light 10h 52m
Length of Day
9h 52m
Full, 100% of the Moon is Illuminated
Jan 27
Full
Feb 3
Last Quarter
Feb 10
New
Feb 17
First Quarter
Feb 25
Full

Hourly Weather History & Observations

Time (EST) Temp. Windchill Dew Point Humidity Pressure Visibility Wind Dir Wind Speed Gust Speed Precip Events Conditions
12:53 AM 17.1 °F 8.7 °F 1.9 °F 52% 30.33 in 10.0 mi WNW 5.8 mph - N/A   Clear
1:53 AM 16.0 °F - 1.9 °F 54% 30.35 in 10.0 mi Calm Calm - N/A   Clear
2:53 AM 15.1 °F - 3.9 °F 61% 30.37 in 10.0 mi Calm Calm - N/A   Clear
3:53 AM 15.1 °F 6.4 °F 5.0 °F 64% 30.37 in 10.0 mi WSW 5.8 mph - N/A   Clear
4:53 AM 15.1 °F - 6.1 °F 68% 30.38 in 10.0 mi Calm Calm - N/A   Clear
5:53 AM 9.0 °F - 3.9 °F 80% 30.39 in 10.0 mi Calm Calm - N/A   Clear
6:53 AM 10.0 °F - 6.1 °F 84% 30.41 in 10.0 mi Calm Calm - N/A   Clear
7:53 AM 10.9 °F - 6.1 °F 81% 30.43 in 10.0 mi Calm Calm - N/A   Clear
8:53 AM 19.9 °F 11.1 °F 6.1 °F 55% 30.45 in 10.0 mi NNW 6.9 mph - N/A   Clear
9:53 AM 21.9 °F 13.4 °F 3.9 °F 46% 30.47 in 10.0 mi NW 6.9 mph - N/A   Clear
10:53 AM 26.1 °F 15.0 °F 1.9 °F 35% 30.48 in 10.0 mi NNW 12.7 mph 17.3 mph N/A   Clear
11:53 AM 28.9 °F 20.4 °F -0.0 °F 29% 30.46 in 10.0 mi WNW 9.2 mph - N/A   Clear
12:53 PM 30.9 °F 25.2 °F -2.0 °F 24% 30.44 in 10.0 mi NNW 5.8 mph - N/A   Clear
1:53 PM 33.1 °F 25.5 °F -0.9 °F 23% 30.42 in 10.0 mi North 9.2 mph 17.3 mph N/A   Clear
2:53 PM 33.1 °F 25.5 °F -2.0 °F 22% 30.43 in 10.0 mi NNW 9.2 mph - N/A   Clear
3:53 PM 33.1 °F 24.4 °F -0.9 °F 23% 30.43 in 10.0 mi NW 11.5 mph - N/A   Clear
4:53 PM 30.0 °F 22.4 °F -2.9 °F 24% 30.46 in 10.0 mi NW 8.1 mph - N/A   Clear
5:53 PM 28.0 °F 22.8 °F -4.0 °F 25% 30.48 in 10.0 mi NNW 4.6 mph - N/A   Clear
6:53 PM 27.0 °F 21.6 °F -4.0 °F 26% 30.48 in 10.0 mi NW 4.6 mph - N/A   Clear
7:53 PM 25.0 °F - -2.0 °F 31% 30.49 in 10.0 mi Calm Calm - N/A   Clear
8:53 PM 21.9 °F - 3.9 °F 46% 30.49 in 10.0 mi Calm Calm - N/A   Clear
9:53 PM 19.9 °F - 5.0 °F 52% 30.49 in 10.0 mi Calm Calm - N/A   Clear
10:53 PM 21.0 °F - 7.0 °F 55% 30.50 in 10.0 mi Calm Calm - N/A   Clear
11:53 PM 18.0 °F - 7.0 °F 62% 30.49 in 10.0 mi Calm Calm - N/A   Clear